ELECTRON KICK STAGE R/B, 58901

Orbit data source: Space-Track

ELECTRON KICK STAGE R/B, 58901 is space debris in SSO originally from a launch on Wed, 31 Jan 2024 UTC launched from the Rocket Lab Launch Complex (RLLC). Debris objects in space refer to the collection of defunct objects orbiting the Earth. Examples of debris include non-operational satellites, rocket bodies, and fragments generated from explosions, collisions, or faulty payload assembly.

Loading next visibility...
Identifier
58901, 2024-022C
Orbit
SSO
Country
Flag of USUS
Related business
Manufacturer
Rocket Lab
Mission
Spacecraft
Bus & Motor
KICK STAGE, CURIE
Mass
~43 kg wet, ~43 kg dry
Launch date (UTC)
2024-01-31 (2 years ago)
Launch vehicle
Unknown
Launch site
Rocket Lab Launch Complex (RLLC)
Object type
Payload
Rocket body
Debris
Shape & HBR
Trunc Cone, 0.7 m
Radar Cross Section
0.760 m², Medium (>0.1 m² and < 1m²)

Expand to show TLE details & history
Last TLE update: 6 hours ago

TLE from 6 hours ago
0 ELECTRON KICK STAGE R/B
1 58901U 24022C   26074.55177312  .00038669  00000-0  69542-3 0  9994
2 58901  97.4178 288.6875 0007703  73.2701 286.9395 15.49718373118226
Epoch: 2026-03-15T13:14Z
TLE epoch observation values (Epoch: 2026-03-15T13:14:33.197Z)
Latitude
-0.00003°
Longitude
-83.10779°
Altitude
419.158 km
Speed
7.66 km/s
True Right ascension
19h 14m 45s
True Declination
0° 00' 00"
Sunlit
Object was in daylight at epoch
Visualization orbit readout
Latitude
Unknown
Longitude
Unknown
Altitude
Unknown
Speed
Unknown
Apparent Right ascension
Unknown
Apparent Declination
Unknown
Sunlit
N/A
Visualization observer readout
Local Sidereal Time
23:18:09
Azimuth
Unknown
Elevation
Unknown
Doppler factor
Unknown
Orbital elements
Apogee altitude
419.708 km
Perigee altitude
409.244 km
Semi-major axis
6,792.613 km
Eccentricity
0.00077
Inclination
97.4178°
RAAN
288.6875°
Arg. of periapsis
73.2701°
True anomaly
286.85504°
Mean anomaly
286.9395°
Eccentric anomaly
286.89727°
Mean motion
3.87693 °/min
Orbital period
92.86 mins
BSTAR
0.00069542
Loading maneuver chart data...
Computing Atmospheric mass density...
Loading historical data...
Loading historical data...
Loading historical data...
Loading historical data...
Loading historical data...
Loading historical data...
Loading historical data...

Documentation

Showing up to 5 results
|